Wind_Speed
25 25 24 25 26 27 28 28 28 27 27 27 28 30 33 36 40 43 42 41 40 39 37 34 33 33 34 35 35 33 33 31 29 29 29 28 28 31 33 35 37 39 41
30 29 28 27 28 29 29 30 30 30 30 30 31 33 35 38 41 42 43 42 39 34 29 25 27 26 28 29 29 29 30 28 26 27 27 28 30 32 34 38 40 42 44
34 33 32 30 30 29 30 31 31 32 33 34 35 36 38 40 41 43 43 42 38 34 29 27 25 24 24 24 25 27 26 27 28 28 30 32 34 36 38 41 44 45 48
37 36 34 32 31 31 31 32 33 34 35 36 38 39 40 41 42 43 42 40 38 34 30 28 27 25 24 24 25 25 27 29 31 33 34 37 40 43 46 46 48 50 52
39 38 35 33 33 32 33 34 35 37 38 39 40 41 42 42 43 42 42 40 37 34 31 29 28 28 28 28 29 30 31 33 36 38 40 42 45 48 50 53 54 56 58
39 37 36 34 33 33 34 35 37 38 39 40 41 42 42 42 42 41 40 38 37 34 32 31 31 30 31 33 34 35 37 38 41 43 45 48 50 52 54 56 58 60 62
36 35 34 33 33 33 33 35 36 38 39 41 42 42 42 41 40 39 38 38 37 36 34 34 35 35 36 37 38 40 42 43 46 48 51 53 55 56 58 60 61 63 64
32 31 31 31 31 31 32 33 36 37 39 40 41 41 40 39 38 38 38 38 39 39 38 38 39 39 40 41 43 44 46 48 50 52 54 56 58 60 61 62 64 64 65
27 27 27 28 28 29 30 32 34 36 37 38 39 39 40 40 40 40 40 41 42 42 42 44 44 44 45 46 47 48 50 52 53 55 57 59 60 62 63 64 65 66 66
25 25 26 27 28 29 31 32 34 36 37 38 39 39 40 40 41 42 43 44 45 46 47 48 48 47 48 49 50 51 52 54 56 58 59 60 61 62 63 64 64 64 64
25 26 27 29 30 32 33 34 35 36 37 38 39 40 41 43 44 45 47 48 49 50 50 51 50 51 51 51 52 53 55 56 57 58 59 60 60 61 62 62 61 61 61
28 29 31 32 33 35 36 37 38 39 40 40 41 42 44 46 47 49 50 51 52 52 52 52 53 53 53 53 54 55 55 56 57 57 58 58 59 58 58 58 58 58 59
33 34 35 36 37 39 40 41 42 43 43 44 45 46 47 49 50 51 52 53 53 53 54 54 54 54 54 54 55 55 55 56 56 56 56 56 55 55 55 55 55 55 55
37 39 40 40 42 42 43 44 45 45 46 46 47 48 50 51 52 53 54 54 54 54 54 54 54 55 55 55 55 55 55 54 54 53 52 52 52 52 52 52 52 52 53
41 42 42 43 43 44 44 44 45 45 46 47 49 50 51 52 53 54 54 55 55 55 55 55 55 55 54 54 54 53 52 50 50 49 49 49 49 50 50 50 50 49 48
41 41 41 42 42 42 42 43 44 44 45 46 48 50 51 52 53 54 54 54 54 54 54 54 54 53 53 52 51 50 49 48 47 48 48 48 48 48 47 47 46 44 40
40 40 40 39 39 41 41 41 42 43 45 47 49 50 51 52 53 53 53 52 52 52 52 52 51 50 49 49 48 47 47 47 47 47 47 47 46 44 43 41 39 36 32
37 37 37 38 39 40 40 41 43 45 47 48 49 50 50 51 51 50 50 50 50 49 49 49 48 47 47 46 46 46 46 46 45 45 44 42 41 39 36 34 31 28 27
34 35 36 37 38 40 42 43 45 46 47 48 48 48 48 48 48 48 47 47 47 47 46 46 45 45 45 45 45 45 45 44 43 41 38 36 33 31 28 25 23 22 22
35 35 37 38 40 41 42 43 44 45 45 46 46 46 46 46 45 45 45 44 44 44 43 43 43 44 43 43 43 42 41 39 37 35 31 28 25 22 20 17 16 17 19
33 35 36 38 39 40 42 42 43 43 43 43 44 44 43 43 43 43 42 42 42 42 42 42 41 41 40 40 38 37 35 32 29 26 23 19 16 13 11 11 13 15 17
32 34 35 37 38 39 39 40 40 41 41 41 41 41 41 40 40 40 40 40 40 39 39 38 37 36 35 33 31 28 25 23 21 18 14 11 8 7 8 9 11 14 16
31 32 33 35 36 36 37 37 37 37 38 38 38 39 39 39 39 39 38 37 36 36 35 33 31 29 27 25 22 19 17 15 13 10 7 4 4 5 7 8 11 13 15
29 30 31 31 31 32 33 33 34 35 36 37 37 38 38 37 36 36 34 33 31 30 28 25 23 22 20 17 15 13 11 9 6 3 2 2 4 6 7 9 11 13 14
25 26 26 27 28 29 30 31 33 34 35 36 36 36 35 34 32 30 28 26 24 22 20 18 17 15 14 11 9 8 5 2 1 2 3 4 6 7 8 10 12 13 15
21 21 22 24 25 27 29 31 32 33 34 34 33 31 30 27 25 22 20 17 16 14 13 12 11 10 8 6 4 1 2 4 5 5 6 7 8 9 10 12 13 15 16
Wind_Direction
264 267 270 271 272 273 274 274 274 275 278 282 287 290 292 294 296 299 300 300 300 300 297 293 290 282 278 275 268 264 262 266 267 267 270 275 280 282 282 283 282 282 281
265 268 271 271 271 272 272 273 274 276 279 283 288 293 295 298 300 303 305 312 315 315 309 299 298 289 281 280 272 267 268 272 278 282 283 285 285 285 285 286 286 285 284
266 269 271 271 269 269 270 270 271 274 278 283 288 292 295 298 300 302 307 311 317 319 318 315 311 299 289 286 279 277 276 282 286 289 292 292 291 290 288 288 289 288 287
266 268 269 268 267 267 267 267 269 272 277 281 285 290 293 295 298 301 304 308 314 317 321 319 315 312 303 295 293 294 295 294 292 292 293 293 293 293 294 292 291 290 289
266 267 268 266 265 264 264 265 266 270 273 278 282 286 289 291 294 297 301 305 312 317 317 317 314 311 307 304 301 301 301 297 296 294 294 293 292 292 292 293 293 291 290
265 266 266 266 264 263 263 263 265 267 271 275 279 281 284 287 290 293 296 302 309 312 312 309 308 305 303 302 300 298 297 296 295 294 293 292 291 291 291 291 290 290 290
264 266 265 265 265 263 262 261 262 265 269 272 276 278 281 284 287 291 294 299 304 307 308 306 303 302 300 298 296 295 294 293 293 291 291 290 290 290 289 289 289 288 288
263 264 264 263 262 261 260 259 261 264 267 270 273 277 280 284 288 291 295 299 302 304 304 304 302 300 298 296 295 293 292 292 291 290 290 289 288 288 288 288 288 288 288
263 262 261 261 259 259 259 259 261 263 266 270 273 277 282 286 289 292 296 299 301 302 302 301 300 298 297 295 294 293 291 290 289 289 288 287 287 288 288 289 288 288 288
262 261 260 261 260 260 260 261 262 265 268 272 276 280 284 287 290 294 297 299 300 300 300 299 298 296 295 294 292 291 289 288 288 288 288 288 288 288 288 289 289 289 290
262 262 262 263 263 264 265 266 268 270 273 275 279 282 285 289 293 295 297 299 299 299 299 298 296 295 294 292 291 290 289 289 288 288 288 289 289 289 290 290 291 291 291
264 265 266 267 269 270 271 273 274 275 276 278 281 284 287 290 293 295 296 296 297 297 296 295 294 294 293 292 291 290 290 290 289 289 289 290 290 290 291 292 292 293 293
266 267 269 271 273 274 275 276 276 277 278 280 282 285 288 290 292 294 294 294 295 295 295 294 294 293 293 292 292 291 291 290 290 290 291 291 292 292 293 294 295 295 295
269 270 271 272 273 274 275 276 276 276 278 280 282 285 287 290 291 292 292 293 293 294 294 293 293 293 293 293 292 292 291 291 291 292 292 293 294 294 295 296 297 297 298
270 272 273 273 274 274 275 276 278 279 281 283 284 286 288 290 290 291 291 292 292 292 292 292 293 293 293 293 293 293 293 293 293 294 294 295 296 296 297 298 299 300 301
270 271 273 274 274 276 277 279 279 281 283 285 286 287 288 288 289 289 290 290 291 291 292 292 293 293 293 293 293 294 295 295 296 296 296 297 297 298 300 300 301 302 303
271 275 277 277 277 280 281 282 283 284 285 286 287 287 287 288 288 289 290 290 291 291 292 293 293 293 294 294 295 295 296 296 297 297 298 299 300 301 302 302 303 304 306
272 273 273 276 279 281 282 283 284 285 287 287 288 288 288 289 289 290 290 291 292 292 293 293 294 294 295 295 296 296 297 298 298 299 300 300 301 302 302 303 304 307 311
272 274 276 277 279 281 283 285 287 287 288 288 288 289 289 289 289 290 291 292 292 292 293 294 294 295 295 296 297 297 298 299 300 300 301 301 301 301 302 303 306 311 314
273 277 280 282 284 286 287 288 288 289 289 289 289 289 290 290 291 291 292 292 293 294 294 294 295 295 296 297 298 299 300 300 301 301 301 301 300 300 302 305 311 316 321
277 280 282 285 286 288 289 290 290 290 291 291 291 291 291 292 292 293 293 293 294 294 294 295 295 296 297 297 298 298 299 299 300 301 301 302 301 302 307 314 321 326 329
281 284 286 288 289 290 290 291 291 292 292 292 292 292 292 293 293 293 294 294 294 295 295 296 296 296 297 297 298 298 298 298 300 302 304 306 310 315 323 330 335 338 340
286 288 290 291 292 292 293 294 294 294 294 294 294 294 294 294 294 295 295 295 295 296 297 297 298 298 298 299 299 298 298 299 302 305 309 318 335 343 346 348 349 351 353
290 291 293 294 295 296 296 296 297 297 297 297 297 296 296 296 296 296 296 296 296 297 297 298 298 299 300 301 300 300 300 301 304 313 348 17 15 13 10 7 4 5 6
293 295 296 298 299 300 301 302 302 302 301 301 300 299 298 298 298 297 297 296 296 296 297 298 299 301 303 304 304 305 302 306 54 83 72 55 42 35 29 25 21 19 18
298 300 302 304 306 308 308 308 308 307 306 305 304 302 301 301 299 299 298 297 297 297 300 302 304 306 309 313 317 347 99 104 100 90 77 66 56 48 43 38 34 31 29
Height
5875 5875 5876 5876 5876 5876 5875 5874 5873 5871 5869 5867 5865 5863 5861 5858 5855 5851 5847 5844 5841 5837 5833 5829 5826 5824 5822 5822 5822 5822 5822 5823 5822 5822 5821 5820 5819 5818 5817 5815 5813 5811 5809
5869 5870 5870 5871 5871 5871 5870 5869 5868 5866 5865 5863 5860 5859 5856 5853 5850 5846 5843 5839 5835 5831 5827 5823 5820 5817 5816 5816 5815 5816 5816 5816 5815 5814 5813 5813 5812 5810 5808 5806 5804 5801 5798
5862 5863 5864 5864 5865 5865 5865 5864 5863 5861 5860 5858 5855 5853 5850 5848 5845 5841 5838 5834 5831 5827 5823 5819 5816 5813 5812 5810 5810 5809 5809 5809 5809 5807 5806 5804 5802 5800 5799 5796 5792 5789 5786
5854 5855 5856 5857 5858 5858 5858 5858 5857 5855 5854 5852 5849 5846 5844 5842 5838 5835 5832 5828 5825 5822 5818 5815 5812 5810 5808 5806 5805 5804 5803 5802 5801 5799 5797 5795 5792 5788 5785 5783 5780 5776 5771
5846 5847 5848 5849 5850 5850 5851 5851 5850 5849 5847 5845 5843 5840 5837 5834 5831 5828 5825 5822 5819 5816 5813 5811 5808 5805 5803 5801 5799 5797 5796 5794 5792 5790 5787 5784 5781 5777 5773 5768 5764 5760 5755
5837 5838 5840 5841 5842 5842 5843 5843 5842 5841 5839 5837 5835 5832 5829 5826 5823 5821 5818 5815 5813 5810 5807 5805 5802 5799 5797 5795 5792 5790 5787 5785 5782 5779 5776 5772 5768 5764 5759 5754 5749 5744 5739
5829 5830 5831 5832 5833 5834 5834 5834 5833 5832 5830 5828 5826 5823 5820 5818 5815 5813 5810 5807 5805 5802 5800 5797 5795 5792 5789 5787 5784 5781 5778 5774 5771 5767 5763 5759 5754 5749 5744 5739 5733 5729 5723
5821 5822 5823 5824 5825 5825 5825 5825 5824 5823 5821 5819 5817 5814 5811 5809 5806 5803 5801 5798 5796 5793 5790 5788 5785 5782 5779 5776 5773 5769 5766 5762 5758 5753 5749 5744 5739 5734 5728 5723 5717 5712 5707
5814 5815 5815 5816 5816 5817 5816 5816 5815 5814 5812 5810 5808 5805 5802 5799 5797 5794 5791 5788 5785 5782 5780 5777 5774 5770 5767 5764 5760 5756 5752 5748 5744 5739 5734 5728 5723 5718 5712 5706 5699 5694 5689
5807 5807 5808 5808 5808 5808 5808 5807 5806 5805 5803 5801 5798 5795 5792 5789 5786 5783 5780 5777 5774 5771 5768 5765 5761 5757 5754 5750 5746 5742 5738 5733 5728 5723 5718 5712 5707 5701 5695 5689 5682 5676 5670
5800 5800 5800 5800 5800 5799 5798 5798 5796 5795 5793 5791 5788 5785 5782 5779 5775 5772 5769 5765 5761 5758 5754 5751 5747 5743 5740 5736 5731 5727 5723 5718 5712 5707 5702 5697 5691 5685 5679 5672 5666 5659 5653
5792 5792 5791 5791 5790 5790 5789 5787 5786 5784 5782 5780 5777 5774 5771 5768 5764 5760 5756 5753 5749 5745 5741 5737 5733 5729 5725 5720 5716 5712 5707 5702 5697 5691 5686 5681 5675 5669 5663 5657 5650 5644 5637
5783 5783 5782 5781 5780 5779 5778 5776 5775 5773 5771 5768 5765 5762 5759 5756 5752 5748 5744 5740 5735 5731 5727 5722 5718 5713 5709 5705 5700 5696 5691 5686 5681 5676 5670 5665 5659 5654 5648 5642 5635 5629 5622
5773 5773 5772 5771 5769 5768 5766 5764 5762 5760 5758 5756 5753 5750 5746 5743 5739 5734 5730 5726 5721 5717 5712 5708 5703 5699 5694 5690 5685 5681 5676 5671 5666 5661 5656 5651 5645 5640 5634 5628 5621 5615 5608
5763 5762 5760 5759 5757 5756 5754 5752 5750 5748 5745 5743 5740 5737 5733 5729 5725 5721 5716 5712 5707 5702 5698 5693 5689 5684 5680 5675 5670 5666 5661 5657 5652 5647 5642 5637 5632 5626 5620 5614 5608 5601 5595
5752 5750 5748 5747 5745 5744 5742 5740 5737 5735 5732 5729 5726 5723 5719 5715 5711 5706 5702 5697 5692 5688 5683 5679 5674 5670 5665 5661 5656 5652 5648 5643 5638 5633 5628 5623 5619 5613 5607 5602 5595 5589 5583
5740 5739 5737 5736 5734 5732 5730 5727 5725 5722 5719 5716 5713 5709 5704 5700 5696 5692 5687 5683 5678 5674 5669 5664 5660 5656 5652 5647 5643 5639 5635 5630 5626 5620 5615 5610 5606 5601 5595 5590 5584 5579 5574
5730 5729 5727 5725 5723 5720 5718 5716 5713 5710 5706 5702 5698 5694 5690 5686 5682 5677 5673 5669 5664 5660 5656 5651 5647 5643 5639 5635 5631 5626 5622 5618 5613 5608 5603 5599 5594 5590 5585 5580 5576 5572 5567
5720 5719 5717 5715 5712 5709 5706 5703 5700 5697 5693 5689 5685 5681 5677 5672 5668 5664 5660 5655 5651 5647 5643 5639 5635 5631 5627 5623 5619 5614 5610 5606 5602 5597 5593 5589 5585 5581 5577 5573 5570 5567 5563
5711 5709 5707 5705 5702 5699 5695 5692 5688 5684 5680 5676 5672 5668 5664 5660 5655 5651 5647 5643 5639 5635 5631 5627 5623 5619 5615 5612 5607 5603 5599 5595 5591 5588 5584 5581 5578 5575 5572 5569 5566 5563 5559
5703 5700 5698 5695 5692 5688 5685 5681 5677 5673 5668 5664 5660 5655 5651 5647 5643 5639 5635 5631 5627 5624 5620 5616 5612 5608 5604 5601 5597 5593 5589 5586 5582 5580 5577 5574 5572 5570 5568 5566 5564 5561 5557
5695 5692 5689 5686 5682 5679 5675 5670 5666 5662 5657 5653 5648 5644 5639 5636 5632 5628 5624 5620 5617 5613 5609 5606 5602 5598 5595 5592 5588 5585 5582 5579 5576 5574 5572 5571 5569 5568 5567 5565 5562 5559 5555
5687 5684 5680 5677 5673 5669 5665 5660 5656 5651 5646 5642 5637 5633 5629 5625 5621 5617 5613 5610 5606 5603 5599 5596 5593 5590 5587 5584 5581 5579 5577 5574 5572 5571 5570 5569 5568 5567 5566 5564 5561 5558 5554
5679 5676 5673 5669 5665 5661 5656 5651 5646 5641 5636 5632 5627 5622 5618 5614 5610 5606 5603 5600 5597 5594 5591 5588 5585 5583 5581 5578 5576 5574 5573 5571 5570 5570 5569 5569 5568 5567 5565 5563 5561 5557 5554
5672 5669 5666 5662 5658 5653 5648 5643 5638 5633 5627 5622 5617 5612 5607 5604 5600 5597 5594 5591 5589 5587 5585 5582 5580 5578 5576 5575 5573 5571 5571 5570 5570 5570 5570 5569 5569 5567 5566 5564 5561 5558 5554
5667 5663 5660 5656 5652 5647 5641 5636 5630 5624 5618 5612 5607 5602 5598 5595 5592 5590 5587 5585 5584 5582 5580 5579 5577 5575 5574 5572 5571 5571 5570 5570 5571 5571 5571 5570 5569 5568 5567 5565 5562 5559 5555